• Em Portugal
  • Lista de países
  • Para 7 dias
  • Temperatura da água
  • Mapas de satélite
  • Mapa do tempo
  • Widgets de tempo
  • user-avatar
    Iniciar Sessão

    Previsão horária em Sololá

    Hoje, 23 Agosto, Quarta-feira

    Tempo Temperatura Precipitação Vento Pressão Humidade
    00:00 +14°C° 0,9 mm 1 m/s 595 mmHg 92%
    01:00 +13°C° 0,3 mm 1 m/s 595 mmHg 91%
    02:00 +13°C° 0,3 mm 1 m/s 594 mmHg 90%
    03:00 +13°C° 0,3 mm 1 m/s 594 mmHg 89%
    04:00 +13°C° 0,1 mm 1 m/s 594 mmHg 89%
    05:00 +12°C° 0,1 mm 1 m/s 593 mmHg 88%
    06:00 +12°C° 0,1 mm 1 m/s 593 mmHg 87%
    07:00 +15°C° 0 mm 1 m/s 595 mmHg 78%
    08:00 +19°C° 0 mm 1 m/s 596 mmHg 69%
    09:00 +20°C° 0 mm 0 m/s 598 mmHg 60%
    10:00 +22°C° 0,2 mm 1 m/s 598 mmHg 59%
    11:00 +23°C° 0,2 mm 1 m/s 598 mmHg 58%
    12:00 +24°C° 0,2 mm 2 m/s 598 mmHg 57%
    13:00 +23°C° 1 mm 1 m/s 597 mmHg 61%
    14:00 +22°C° 1 mm 1 m/s 596 mmHg 65%
    15:00 +21°C° 1 mm 1 m/s 595 mmHg 70%
    16:00 +20°C° 0,9 mm 1 m/s 595 mmHg 76%
    17:00 +19°C° 0,9 mm 1 m/s 594 mmHg 82%
    18:00 +15°C° 0,9 mm 0 m/s 593 mmHg 88%
    19:00 +15°C° 0,3 mm 0 m/s 594 mmHg 88%
    20:00 +14°C° 0,3 mm 0 m/s 594 mmHg 88%
    21:00 +15°C° 0,3 mm 1 m/s 594 mmHg 88%
    22:00 +15°C° 0,3 mm 1 m/s 594 mmHg 88%
    23:00 +14°C° 0,3 mm 1 m/s 594 mmHg 88%

    Amanhã, 24 Agosto, Quinta-feira

    Tempo Temperatura Precipitação Vento Pressão Humidade
    00:00 +14°C° 0,3 mm 1 m/s 594 mmHg 88%
    01:00 +14°C° 0,1 mm 1 m/s 594 mmHg 88%
    02:00 +14°C° 0,1 mm 1 m/s 593 mmHg 88%
    03:00 +14°C° 0,1 mm 1 m/s 593 mmHg 87%
    04:00 +14°C° 0,1 mm 1 m/s 593 mmHg 87%
    05:00 +14°C° 0,1 mm 1 m/s 593 mmHg 87%
    06:00 +14°C° 0,1 mm 1 m/s 593 mmHg 87%
    07:00 +16°C° 0 mm 1 m/s 594 mmHg 81%
    08:00 +19°C° 0 mm 1 m/s 595 mmHg 74%
    09:00 +21°C° 0 mm 1 m/s 596 mmHg 68%
    10:00 +22°C° 0,3 mm 1 m/s 596 mmHg 65%
    11:00 +23°C° 0,3 mm 1 m/s 596 mmHg 62%
    12:00 +24°C° 0,3 mm 1 m/s 597 mmHg 59%
    13:00 +23°C° 1,3 mm 1 m/s 596 mmHg 64%
    14:00 +22°C° 1,3 mm 1 m/s 595 mmHg 69%
    15:00 +21°C° 1,3 mm 1 m/s 594 mmHg 74%
    16:00 +20°C° 1,3 mm 1 m/s 594 mmHg 79%
    17:00 +19°C° 1,3 mm 1 m/s 593 mmHg 83%
    18:00 +15°C° 1,3 mm 0 m/s 593 mmHg 88%
    19:00 +15°C° 1,5 mm 0 m/s 593 mmHg 89%
    20:00 +14°C° 1,5 mm 0 m/s 593 mmHg 91%
    21:00 +13°C° 1,5 mm 0 m/s 594 mmHg 92%
    22:00 +13°C° 1,4 mm 0 m/s 594 mmHg 92%
    23:00 +13°C° 1,4 mm 0 m/s 594 mmHg 92%

    Depois de amanhã, 25 Agosto, Sexta-feira

    Tempo Temperatura Precipitação Vento Pressão Humidade
    00:00 +13°C° 1,4 mm 0 m/s 594 mmHg 92%
    01:00 +14°C° 1 mm 1 m/s 593 mmHg 92%
    02:00 +14°C° 1 mm 1 m/s 593 mmHg 92%
    03:00 +13°C° 1 mm 1 m/s 593 mmHg 91%
    04:00 +13°C° 0,6 mm 1 m/s 593 mmHg 91%
    05:00 +13°C° 0,6 mm 1 m/s 593 mmHg 90%
    06:00 +13°C° 0,6 mm 1 m/s 593 mmHg 90%
    07:00 +15°C° 0,4 mm 1 m/s 594 mmHg 85%
    08:00 +16°C° 0,4 mm 1 m/s 595 mmHg 81%
    09:00 +17°C° 0,4 mm 0 m/s 596 mmHg 77%
    10:00 +19°C° 0,6 mm 1 m/s 596 mmHg 76%
    11:00 +20°C° 0,6 mm 1 m/s 596 mmHg 75%
    12:00 +20°C° 0,6 mm 1 m/s 596 mmHg 74%
    13:00 +20°C° 0,5 mm 1 m/s 595 mmHg 74%
    14:00 +20°C° 0,5 mm 1 m/s 595 mmHg 74%
    15:00 +19°C° 0,5 mm 2 m/s 595 mmHg 73%
    16:00 +19°C° 1 mm 1 m/s 594 mmHg 80%
    17:00 +18°C° 1 mm 1 m/s 594 mmHg 86%
    18:00 +16°C° 1 mm 1 m/s 594 mmHg 93%
    19:00 +15°C° 2 mm 1 m/s 594 mmHg 94%
    20:00 +15°C° 2 mm 1 m/s 594 mmHg 95%
    21:00 +13°C° 2 mm 0 m/s 595 mmHg 96%
    22:00 +13°C° 1,9 mm 0 m/s 595 mmHg 96%
    23:00 +13°C° 1,9 mm 0 m/s 595 mmHg 96%

    26 Agosto, Sábado

    Tempo Temperatura Precipitação Vento Pressão Humidade
    00:00 +13°C° 1,9 mm 0 m/s 595 mmHg 96%
    01:00 +14°C° 1 mm 1 m/s 594 mmHg 95%
    02:00 +14°C° 1 mm 1 m/s 594 mmHg 94%
    03:00 +14°C° 1 mm 1 m/s 593 mmHg 94%
    04:00 +13°C° 0,7 mm 1 m/s 594 mmHg 93%
    05:00 +13°C° 0,7 mm 1 m/s 594 mmHg 93%
    06:00 +13°C° 0,7 mm 1 m/s 594 mmHg 93%
    07:00 +15°C° 0,5 mm 1 m/s 595 mmHg 88%
    08:00 +16°C° 0,5 mm 1 m/s 596 mmHg 82%
    09:00 +19°C° 0,5 mm 1 m/s 597 mmHg 77%
    10:00 +19°C° 0,4 mm 1 m/s 597 mmHg 74%
    11:00 +19°C° 0,4 mm 2 m/s 597 mmHg 71%
    12:00 +20°C° 0,4 mm 2 m/s 597 mmHg 68%
    13:00 +19°C° 0,8 mm 2 m/s 596 mmHg 71%
    14:00 +19°C° 0,8 mm 2 m/s 595 mmHg 74%
    15:00 +18°C° 0,8 mm 2 m/s 594 mmHg 78%
    16:00 +18°C° 0,9 mm 1 m/s 594 mmHg 82%
    17:00 +16°C° 0,9 mm 1 m/s 594 mmHg 87%
    18:00 +15°C° 0,9 mm 1 m/s 594 mmHg 91%
    19:00 +15°C° 0,5 mm 1 m/s 594 mmHg 92%
    20:00 +15°C° 0,5 mm 1 m/s 594 mmHg 93%
    21:00 +14°C° 0,5 mm 1 m/s 594 mmHg 93%
    22:00 +14°C° 0,3 mm 1 m/s 594 mmHg 93%
    23:00 +14°C° 0,3 mm 1 m/s 594 mmHg 94%

    27 Agosto, Domingo

    Tempo Temperatura Precipitação Vento Pressão Humidade
    00:00 +14°C° 0,3 mm 1 m/s 594 mmHg 94%
    01:00 +14°C° 0,2 mm 1 m/s 594 mmHg 93%
    02:00 +14°C° 0,2 mm 1 m/s 594 mmHg 93%
    03:00 +14°C° 0,2 mm 1 m/s 593 mmHg 93%
    04:00 +14°C° 0,1 mm 1 m/s 593 mmHg 92%
    05:00 +14°C° 0,1 mm 1 m/s 594 mmHg 92%
    06:00 +14°C° 0,1 mm 1 m/s 594 mmHg 91%
    07:00 +15°C° 0,1 mm 1 m/s 595 mmHg 86%
    08:00 +16°C° 0,1 mm 1 m/s 595 mmHg 80%
    09:00 +19°C° 0,1 mm 1 m/s 596 mmHg 74%
    10:00 +20°C° 0,1 mm 1 m/s 596 mmHg 70%
    11:00 +20°C° 0,1 mm 2 m/s 596 mmHg 66%
    12:00 +21°C° 0,1 mm 2 m/s 596 mmHg 63%
    13:00 +20°C° 0,5 mm 2 m/s 596 mmHg 67%
    14:00 +20°C° 0,5 mm 2 m/s 595 mmHg 71%
    15:00 +19°C° 0,5 mm 2 m/s 594 mmHg 75%
    16:00 +19°C° 0,8 mm 1 m/s 594 mmHg 80%
    17:00 +18°C° 0,8 mm 1 m/s 594 mmHg 84%
    18:00 +16°C° 0,8 mm 1 m/s 593 mmHg 89%
    19:00 +15°C° 0,8 mm 1 m/s 594 mmHg 90%
    20:00 +15°C° 0,8 mm 1 m/s 594 mmHg 92%
    21:00 +13°C° 0,8 mm 0 m/s 594 mmHg 93%
    22:00 +14°C° 0,3 mm 1 m/s 594 mmHg 93%
    23:00 +14°C° 0,3 mm 1 m/s 594 mmHg 93%

    28 Agosto, Segunda-feira

    Tempo Temperatura Precipitação Vento Pressão Humidade
    00:00 +13°C° 0,3 mm 1 m/s 594 mmHg 93%
    01:00 +13°C° 0 mm 1 m/s 593 mmHg 93%
    02:00 +13°C° 0 mm 1 m/s 593 mmHg 93%
    03:00 +13°C° 0 mm 1 m/s 593 mmHg 92%
    04:00 +12°C° 0 mm 1 m/s 593 mmHg 91%
    05:00 +12°C° 0 mm 1 m/s 593 mmHg 90%
    06:00 +12°C° 0 mm 1 m/s 593 mmHg 89%
    07:00 +14°C° 0 mm 1 m/s 594 mmHg 78%
    08:00 +18°C° 0 mm 1 m/s 595 mmHg 68%
    09:00 +21°C° 0 mm 1 m/s 596 mmHg 57%
    10:00 +22°C° 0 mm 1 m/s 597 mmHg 56%
    11:00 +23°C° 0 mm 2 m/s 597 mmHg 54%
    12:00 +24°C° 0 mm 2 m/s 597 mmHg 52%
    13:00 +23°C° 0,4 mm 2 m/s 596 mmHg 57%
    14:00 +21°C° 0,4 mm 2 m/s 595 mmHg 63%
    15:00 +20°C° 0,4 mm 2 m/s 594 mmHg 68%
    16:00 +19°C° 0,5 mm 2 m/s 594 mmHg 74%
    17:00 +19°C° 0,5 mm 1 m/s 594 mmHg 79%
    18:00 +16°C° 0,5 mm 1 m/s 594 mmHg 85%
    19:00 +16°C° 0,2 mm 1 m/s 594 mmHg 88%
    20:00 +15°C° 0,2 mm 1 m/s 594 mmHg 91%
    21:00 +13°C° 0,2 mm 0 m/s 594 mmHg 93%
    22:00 +14°C° 0,1 mm 1 m/s 594 mmHg 93%
    23:00 +13°C° 0,1 mm 1 m/s 594 mmHg 93%
    Mostrar mais